Tracking 19170 objects as of 23-May-2018
HD Live streaming from Space Station
objects crossing your sky now

NOAA 16 DEB

Track NOAA 16 DEB now!
10-day predictions


NORAD ID: 41664
Int'l Code: 2000-055PD
Perigee: 825.4 km
Apogee: 848.7 km
Inclination: 98.9 °
Period: 101.5 minutes
Semi major axis: 7208 km
RCS: Unknown
Launch date: September 21, 2000
Source: United States (US)
Launch site: AIR FORCE WESTERN TEST RANGE (AFWTR)

Note: This is SATELLITE DEBRIS
aabbcc
Your satellite tracking list
Your tracking list is empty




NASA's NSSDC Master Catalog

Two Line Element Set (TLE):
1 41664U 00055PD  18142.19928475 +.00001509 +00000-0 +74884-3 0  9991
2 41664 098.9146 226.4744 0016144 024.1650 336.0279 14.18650388107690
Source of the keplerian elements: AFSPC